KL3RR-2 Weather Reports


Display with metric or nautical units.
time (UTC)temp
F
wind
direction
speed
MPH
gust
MPH
rain 1hr
in
rain 24hr
in
rain mn
in
humidity
%
barometer
mb
20260507064059 41 0.0 0.0 0.00 0.00 0.00 85 1016.1
20260507063558 41 0.0 0.0 0.00 0.00 0.00 85 1016.0
20260507063057 41 0.0 0.0 0.00 0.00 0.00 85 1016.0
20260507062556 41 0.0 0.0 0.00 0.00 0.00 84 1016.0
20260507062055 41 0.0 0.0 0.00 0.00 0.00 84 1016.0
20260507061554 41 0.0 0.0 0.00 0.00 0.00 84 1015.9
20260507061053 41 0.0 0.0 0.00 0.00 0.00 85 1016.0
20260507060552 41 0.0 0.0 0.00 0.00 0.00 85 1015.9
20260507060051 41 0.0 0.0 0.00 0.00 0.00 85 1015.8
20260507055550 41 0.0 0.0 0.00 0.00 0.00 86 1015.8
20260507055049 41 0.0 0.0 0.00 0.00 0.00 86 1015.8
20260507054548 41 0.0 0.0 0.00 0.00 0.00 86 1015.6
20260507054047 41 0.0 0.0 0.00 0.00 0.00 85 1015.6
20260507053546 41 0.0 0.0 0.00 0.00 0.00 84 1015.5
20260507053045 41 0.0 0.0 0.00 0.00 0.00 84 1015.4
20260507052544 41 0.0 0.0 0.00 0.00 0.00 83 1015.4
20260507052043 41 0.0 0.0 0.00 0.00 0.00 84 1015.4
20260507051542 41 0.0 0.0 0.00 0.00 0.00 84 1015.3
20260507051041 41 0.0 0.0 0.00 0.00 0.00 83 1015.3
20260507050540 41 0.0 0.0 0.00 0.00 0.00 83 1015.2
20260507050039 41 0.0 0.0 0.00 0.00 0.00 83 1015.2
20260507045538 41 0.0 0.0 0.00 0.00 0.00 82 1015.1
20260507045037 41 0.0 0.0 0.00 0.00 0.00 83 1015.1
20260507044536 41 0.0 0.0 0.00 0.00 0.00 83 1015.2
20260507044035 41 0.0 0.0 0.00 0.00 0.00 84 1015.1
20260507043534 41 0.0 0.0 0.00 0.00 0.00 83 1015.0
20260507043033 41 0.0 0.0 0.00 0.00 0.00 83 1015.0
20260507042532 41 0.0 0.0 0.00 0.00 0.00 83 1015.0
20260507042031 41 0.0 0.0 0.00 0.00 0.00 83 1014.9
20260507041530 41 0.0 0.0 0.00 0.00 0.00 83 1015.0
20260507041029 42 0.0 0.0 0.00 0.00 0.00 82 1015.0
20260507040528 42 0.0 0.0 0.00 0.00 0.00 83 1015.0
20260507040027 42 0.0 0.0 0.00 0.00 0.00 82 1015.0
20260507035526 42 0.0 0.0 0.00 0.00 0.00 81 1015.0
20260507035025 43 0.0 0.0 0.00 0.00 0.00 80 1015.0
20260507034524 43 0.0 0.0 0.00 0.00 0.00 78 1014.9
20260507034023 43 0.0 0.0 0.00 0.00 0.00 76 1015.0
20260507033522 44 0.0 0.0 0.00 0.00 0.00 73 1014.8
20260507033021 44 0.0 0.0 0.00 0.00 0.00 71 1014.8
20260507032520 44 0.0 0.0 0.00 0.00 0.00 68 1014.9
20260507032019 45 0.0 0.0 0.00 0.00 0.00 67 1014.8
20260507031518 46 0.0 0.0 0.00 0.00 0.00 66 1014.6
20260507031017 46 0.0 0.0 0.00 0.00 0.00 65 1014.4
20260507030516 46 0.0 0.0 0.00 0.00 0.00 64 1014.3
20260507030015 46 0.0 0.0 0.00 0.00 0.00 64 1014.2
20260507025514 47 0.0 0.0 0.00 0.00 0.00 64 1014.2
20260507025013 47 0.0 0.0 0.00 0.00 0.00 63 1014.2
20260507024512 48 0.0 0.0 0.00 0.00 0.00 64 1014.2
20260507024011 48 0.0 0.0 0.00 0.00 0.00 64 1014.1
20260507023510 48 0.0 0.0 0.00 0.00 0.00 64 1014.1
20260507023009 48 0.0 0.0 0.00 0.00 0.00 65 1014.1
20260507022508 48 0.0 0.0 0.00 0.00 0.00 66 1014.0
20260507022007 47 0.0 0.0 0.00 0.00 0.00 66 1014.0
20260507021506 48 0.0 0.0 0.00 0.00 0.00 66 1014.0
20260507021005 47 0.0 0.0 0.00 0.00 0.00 68 1013.9
20260507020504 47 0.0 0.0 0.00 0.00 0.00 68 1013.9
20260507020003 47 0.0 0.0 0.00 0.00 0.00 72 1013.9
20260507015502 46 0.0 0.0 0.00 0.00 0.00 72 1013.9
20260507015001 46 0.0 0.0 0.00 0.00 0.00 72 1013.9
20260507014500 45 0.0 0.0 0.00 0.00 0.00 72 1013.9
20260507013959 45 0.0 0.0 0.00 0.00 0.00 72 1014.0
20260507013458 45 0.0 0.0 0.00 0.00 0.00 72 1014.0
20260507012957 46 0.0 0.0 0.00 0.00 0.00 71 1013.9
20260507012456 46 0.0 0.0 0.00 0.00 0.00 70 1014.0
20260507011955 46 0.0 0.0 0.00 0.00 0.00 69 1014.0
20260507011454 47 0.0 0.0 0.00 0.00 0.00 69 1014.0
20260507010953 47 0.0 0.0 0.00 0.00 0.00 69 1014.0
20260507010452 46 0.0 0.0 0.00 0.00 0.00 68 1014.0
20260507005951 47 0.0 0.0 0.00 0.00 0.00 68 1013.9
20260507005450 47 0.0 0.0 0.00 0.00 0.00 68 1014.0
20260507004949 47 0.0 0.0 0.00 0.00 0.00 68 1014.0
20260507004448 47 0.0 0.0 0.00 0.00 0.00 67 1013.9
20260507003947 47 0.0 0.0 0.00 0.00 0.00 67 1013.9
20260507003446 47 0.0 0.0 0.00 0.00 0.00 67 1013.9
20260507002945 48 0.0 0.0 0.00 0.00 0.00 66 1013.9
20260507002444 48 0.0 0.0 0.00 0.00 0.00 66 1013.8
20260507001943 48 0.0 0.0 0.00 0.00 0.00 66 1013.8
20260507001442 48 0.0 0.0 0.00 0.00 0.00 66 1013.8
20260507000941 48 0.0 0.0 0.00 0.00 0.00 65 1013.8
20260507000442 49 0.0 0.0 0.00 0.00 0.00 66 1013.7
20260506235939 49 0.0 0.0 0.00 0.00 0.00 66 1013.7
20260506235438 48 0.0 0.0 0.00 0.00 0.00 66 1013.7
20260506234937 48 0.0 0.0 0.00 0.00 0.00 65 1013.6
20260506234436 48 0.0 0.0 0.00 0.00 0.00 65 1013.6
20260506233935 48 0.0 0.0 0.00 0.00 0.00 65 1013.6
20260506233434 48 0.0 0.0 0.00 0.00 0.00 65 1013.6
20260506232933 48 0.0 0.0 0.00 0.00 0.00 65 1013.6
20260506232432 48 0.0 0.0 0.00 0.00 0.00 65 1013.5
20260506231931 48 0.0 0.0 0.00 0.00 0.00 64 1013.5
20260506231430 48 0.0 0.0 0.00 0.00 0.00 64 1013.5
20260506230929 48 0.0 0.0 0.00 0.00 0.00 64 1013.5
20260506230428 48 0.0 0.0 0.00 0.00 0.00 64 1013.5
20260506225927 48 0.0 0.0 0.00 0.00 0.00 64 1013.5
20260506225426 48 0.0 0.0 0.00 0.00 0.00 63 1013.5
20260506224925 48 0.0 0.0 0.00 0.00 0.00 63 1013.5
20260506224424 49 0.0 0.0 0.00 0.00 0.00 63 1013.4
20260506223923 48 0.0 0.0 0.00 0.00 0.00 63 1013.4
20260506223422 49 0.0 0.0 0.00 0.00 0.00 63 1013.4
20260506222921 49 0.0 0.0 0.00 0.00 0.00 63 1013.3
20260506222420 49 0.0 0.0 0.00 0.00 0.00 62 1013.3
20260506221919 49 0.0 0.0 0.00 0.00 0.00 62 1013.2
20260506221418 49 0.0 0.0 0.00 0.00 0.00 62 1013.2
20260506220917 50 0.0 0.0 0.00 0.00 0.00 62 1013.2
20260506220416 49 0.0 0.0 0.00 0.00 0.00 62 1013.1
20260506215915 50 0.0 0.0 0.00 0.00 0.00 61 1013.1
20260506215414 50 0.0 0.0 0.00 0.00 0.00 61 1013.1
20260506214913 50 0.0 0.0 0.00 0.00 0.00 61 1013.0
20260506214412 50 0.0 0.0 0.00 0.00 0.00 61 1013.1
20260506213911 50 0.0 0.0 0.00 0.00 0.00 61 1013.0
20260506213410 50 0.0 0.0 0.00 0.00 0.00 61 1013.0
20260506212909 49 0.0 0.0 0.00 0.00 0.00 62 1012.9
20260506212408 49 0.0 0.0 0.00 0.00 0.00 62 1012.8
20260506211907 48 0.0 0.0 0.00 0.00 0.00 62 1012.7
20260506211406 48 0.0 0.0 0.00 0.00 0.00 63 1012.7
20260506210905 49 0.0 0.0 0.00 0.00 0.00 63 1012.7
20260506210404 49 0.0 0.0 0.00 0.00 0.00 65 1012.7
20260506205903 48 0.0 0.0 0.00 0.00 0.00 64 1012.7
20260506205402 48 0.0 0.0 0.00 0.00 0.00 65 1012.7
20260506204901 48 0.0 0.0 0.00 0.00 0.00 65 1012.6
20260506204400 47 0.0 0.0 0.00 0.00 0.00 66 1012.6
20260506203859 47 0.0 0.0 0.00 0.00 0.00 65 1012.5
20260506203358 47 0.0 0.0 0.00 0.00 0.00 66 1012.5
20260506202857 47 0.0 0.0 0.00 0.00 0.00 66 1012.5
20260506202356 47 0.0 0.0 0.00 0.00 0.00 66 1012.4
20260506201855 46 0.0 0.0 0.00 0.00 0.00 66 1012.4
20260506201354 46 0.0 0.0 0.00 0.00 0.00 66 1012.3
20260506200853 46 0.0 0.0 0.00 0.00 0.00 66 1012.4
20260506200352 46 0.0 0.0 0.00 0.00 0.00 66 1012.3
20260506195851 46 0.0 0.0 0.00 0.00 0.00 66 1012.2
20260506195350 46 0.0 0.0 0.00 0.00 0.00 65 1012.2
20260506194849 46 0.0 0.0 0.00 0.00 0.00 67 1012.1
20260506194348 46 0.0 0.0 0.00 0.00 0.00 68 1012.1
20260506193847 46 0.0 0.0 0.00 0.00 0.00 68 1012.1
20260506193346 46 0.0 0.0 0.00 0.00 0.00 68 1012.2
20260506192845 46 0.0 0.0 0.00 0.00 0.00 68 1012.2
20260506192344 45 0.0 0.0 0.00 0.00 0.00 68 1012.2
20260506191843 45 0.0 0.0 0.00 0.00 0.00 68 1012.1
20260506191342 45 0.0 0.0 0.00 0.00 0.00 69 1012.2
20260506190841 46 0.0 0.0 0.00 0.00 0.00 69 1012.1
20260506190340 46 0.0 0.0 0.00 0.00 0.00 70 1012.1
20260506185839 46 0.0 0.0 0.00 0.00 0.00 69 1012.1
20260506185338 46 0.0 0.0 0.00 0.00 0.00 70 1012.1
20260506184837 46 0.0 0.0 0.00 0.00 0.00 69 1012.1
20260506184336 46 0.0 0.0 0.00 0.00 0.00 70 1012.1
20260506183835 46 0.0 0.0 0.00 0.00 0.00 70 1012.0
20260506183334 46 0.0 0.0 0.00 0.00 0.00 71 1012.0
20260506182833 46 0.0 0.0 0.00 0.00 0.00 71 1012.0
20260506182332 46 0.0 0.0 0.00 0.00 0.00 71 1012.0
20260506181831 45 0.0 0.0 0.00 0.00 0.00 71 1011.9
20260506181330 45 0.0 0.0 0.00 0.00 0.00 71 1011.8
20260506180829 45 0.0 0.0 0.00 0.00 0.00 71 1011.8
20260506180328 45 0.0 0.0 0.00 0.00 0.00 71 1011.8
20260506175827 45 0.0 0.0 0.00 0.00 0.00 71 1011.8
20260506175326 44 0.0 0.0 0.00 0.00 0.00 71 1011.8
20260506174825 44 0.0 0.0 0.00 0.00 0.00 71 1011.7
20260506174324 44 0.0 0.0 0.00 0.00 0.00 71 1011.7
20260506173823 44 0.0 0.0 0.00 0.00 0.00 71 1011.7
20260506173322 44 0.0 0.0 0.00 0.00 0.00 71 1011.7
20260506172821 44 0.0 0.0 0.00 0.00 0.00 71 1011.7
20260506172320 44 0.0 0.0 0.00 0.00 0.00 72 1011.6
20260506171819 44 0.0 0.0 0.00 0.00 0.00 72 1011.6
20260506171318 44 0.0 0.0 0.00 0.00 0.00 72 1011.6
20260506170817 43 0.0 0.0 0.00 0.00 0.00 72 1011.5
20260506170316 43 0.0 0.0 0.00 0.00 0.00 72 1011.5
20260506165815 43 0.0 0.0 0.00 0.00 0.00 72 1011.5
20260506165314 42 0.0 0.0 0.00 0.00 0.00 72 1011.5
20260506164813 42 0.0 0.0 0.00 0.00 0.00 72 1011.4
20260506164312 42 0.0 0.0 0.00 0.00 0.00 73 1011.4
20260506163811 42 0.0 0.0 0.00 0.00 0.00 73 1011.4
20260506163310 42 0.0 0.0 0.00 0.00 0.00 73 1011.3
20260506162809 42 0.0 0.0 0.00 0.00 0.00 73 1011.2
20260506162308 42 0.0 0.0 0.00 0.00 0.00 73 1011.2
20260506161807 42 0.0 0.0 0.00 0.00 0.00 73 1011.2
20260506161306 42 0.0 0.0 0.00 0.00 0.00 73 1011.1
20260506160805 41 0.0 0.0 0.00 0.00 0.00 73 1011.1
20260506160304 41 0.0 0.0 0.00 0.00 0.00 73 1011.0
20260506155803 41 0.0 0.0 0.00 0.00 0.00 73 1011.0
20260506155305 41 0.0 0.0 0.00 0.00 0.00 73 1011.0
20260506154801 41 0.0 0.0 0.00 0.00 0.00 73 1011.0
20260506154300 41 0.0 0.0 0.00 0.00 0.00 73 1011.0
20260506153759 41 0.0 0.0 0.00 0.00 0.00 73 1011.0
20260506153258 41 0.0 0.0 0.00 0.00 0.00 73 1011.0
20260506152757 41 0.0 0.0 0.00 0.00 0.00 74 1010.9
20260506152256 41 0.0 0.0 0.00 0.00 0.00 74 1010.9
20260506151755 41 0.0 0.0 0.00 0.00 0.00 74 1011.0
20260506151254 40 0.0 0.0 0.00 0.00 0.00 74 1010.9
20260506150753 40 0.0 0.0 0.00 0.00 0.00 74 1010.8
20260506150252 40 0.0 0.0 0.00 0.00 0.00 74 1010.7
20260506145751 40 0.0 0.0 0.00 0.00 0.00 74 1010.8
20260506145250 40 0.0 0.0 0.00 0.00 0.00 75 1010.8
20260506144749 40 0.0 0.0 0.00 0.00 0.00 75 1010.7
20260506144248 40 0.0 0.0 0.00 0.00 0.00 75 1010.7
20260506143747 40 0.0 0.0 0.00 0.00 0.00 75 1010.7
20260506143246 40 0.0 0.0 0.00 0.00 0.00 75 1010.6
20260506142745 40 0.0 0.0 0.00 0.00 0.00 75 1010.6
20260506142244 40 0.0 0.0 0.00 0.00 0.00 75 1010.6
20260506141743 40 0.0 0.0 0.00 0.00 0.00 76 1010.6
20260506141242 40 0.0 0.0 0.00 0.00 0.00 76 1010.6
20260506140741 40 0.0 0.0 0.00 0.00 0.00 76 1010.6
20260506140240 40 0.0 0.0 0.00 0.00 0.00 76 1010.6
20260506135739 40 0.0 0.0 0.00 0.00 0.00 76 1010.5
20260506135238 40 0.0 0.0 0.00 0.00 0.00 76 1010.5
20260506134737 40 0.0 0.0 0.00 0.00 0.00 76 1010.6
20260506134236 40 0.0 0.0 0.00 0.00 0.00 76 1010.6
20260506133735 40 0.0 0.0 0.00 0.00 0.00 77 1010.6
20260506133234 40 0.0 0.0 0.00 0.00 0.00 76 1010.5
20260506132733 41 0.0 0.0 0.00 0.00 0.00 74 1010.5
20260506132232 41 0.0 0.0 0.00 0.00 0.00 74 1010.5
20260506131731 41 0.0 0.0 0.00 0.00 0.00 74 1010.5
20260506131230 41 0.0 0.0 0.00 0.00 0.00 74 1010.4
20260506130729 41 0.0 0.0 0.00 0.00 0.00 74 1010.4
20260506130228 41 0.0 0.0 0.00 0.00 0.00 74 1010.4
20260506125727 41 0.0 0.0 0.00 0.00 0.00 74 1010.4
20260506125226 41 0.0 0.0 0.00 0.00 0.00 74 1010.3
20260506124725 41 0.0 0.0 0.00 0.00 0.00 73 1010.3
20260506124224 41 0.0 0.0 0.00 0.00 0.00 73 1010.3
20260506123723 41 0.0 0.0 0.00 0.00 0.00 73 1010.3
20260506123222 41 0.0 0.0 0.00 0.00 0.00 73 1010.2
20260506122721 41 0.0 0.0 0.00 0.00 0.00 72 1010.3
20260506122220 41 0.0 0.0 0.00 0.00 0.00 72 1010.2
20260506121719 41 0.0 0.0 0.00 0.00 0.00 72 1010.2
20260506121218 41 0.0 0.0 0.00 0.00 0.00 72 1010.2
20260506120717 41 0.0 0.0 0.00 0.00 0.00 73 1010.1
20260506120216 41 0.0 0.0 0.00 0.00 0.00 72 1010.1
20260506115715 41 0.0 0.0 0.00 0.00 0.00 72 1010.1
20260506115214 41 0.0 0.0 0.00 0.00 0.00 72 1010.1
20260506114713 41 0.0 0.0 0.00 0.00 0.00 72 1010.1
20260506114212 41 0.0 0.0 0.00 0.00 0.00 71 1010.0
20260506113711 41 0.0 0.0 0.00 0.00 0.00 71 1010.1
20260506113210 41 0.0 0.0 0.00 0.00 0.00 71 1010.1
20260506112709 41 0.0 0.0 0.00 0.00 0.00 71 1010.1
20260506112208 41 0.0 0.0 0.00 0.00 0.00 71 1010.1
20260506111707 41 0.0 0.0 0.00 0.00 0.00 71 1010.2
20260506111206 41 0.0 0.0 0.00 0.00 0.00 71 1010.2
20260506110705 41 0.0 0.0 0.00 0.00 0.00 71 1010.2
20260506110204 41 0.0 0.0 0.00 0.00 0.00 71 1010.1
20260506105703 41 0.0 0.0 0.00 0.00 0.00 70 1010.1
20260506105202 41 0.0 0.0 0.00 0.00 0.00 70 1010.0
20260506104701 41 0.0 0.0 0.00 0.00 0.00 70 1009.9
20260506104200 41 0.0 0.0 0.00 0.00 0.00 69 1009.9
20260506103659 41 0.0 0.0 0.00 0.00 0.00 69 1009.9
20260506103158 41 0.0 0.0 0.00 0.00 0.00 68 1009.9
20260506102657 42 0.0 0.0 0.00 0.00 0.00 67 1009.9
20260506102156 42 0.0 0.0 0.00 0.00 0.00 67 1009.9
20260506101655 42 0.0 0.0 0.00 0.00 0.00 67 1009.9
20260506101154 42 0.0 0.0 0.00 0.00 0.00 66 1009.9
20260506100653 42 0.0 0.0 0.00 0.00 0.00 67 1009.8
20260506100152 42 0.0 0.0 0.00 0.00 0.00 66 1009.8
20260506095651 42 0.0 0.0 0.00 0.00 0.00 66 1009.8
20260506095150 42 0.0 0.0 0.00 0.00 0.00 66 1009.8
20260506094649 42 0.0 0.0 0.00 0.00 0.00 66 1009.7
20260506094148 42 0.0 0.0 0.00 0.00 0.00 66 1009.7
20260506093647 42 0.0 0.0 0.00 0.00 0.00 66 1009.7
20260506093146 42 0.0 0.0 0.00 0.00 0.00 66 1009.6
20260506092645 42 0.0 0.0 0.00 0.00 0.00 65 1009.6
20260506092144 42 0.0 0.0 0.00 0.00 0.00 64 1009.5
20260506091643 42 0.0 0.0 0.00 0.00 0.00 63 1009.5
20260506091142 42 0.0 0.0 0.00 0.00 0.00 62 1009.5
20260506090641 43 0.0 0.0 0.00 0.00 0.00 61 1009.4
20260506090140 43 0.0 0.0 0.00 0.00 0.00 61 1009.3
20260506085639 43 0.0 0.0 0.00 0.00 0.00 60 1009.3
20260506085138 44 0.0 0.0 0.00 0.00 0.00 59 1009.3
20260506084637 44 0.0 0.0 0.00 0.00 0.00 59 1009.2
20260506084136 43 0.0 0.0 0.00 0.00 0.00 60 1009.1
20260506083635 44 0.0 0.0 0.00 0.00 0.00 60 1009.1
20260506083134 44 0.0 0.0 0.00 0.00 0.00 59 1009.1
20260506082633 44 0.0 0.0 0.00 0.00 0.00 59 1009.0
20260506082132 44 0.0 0.0 0.00 0.00 0.00 59 1008.9
20260506081631 44 0.0 0.0 0.00 0.00 0.00 59 1008.8
20260506081130 44 0.0 0.0 0.00 0.00 0.00 58 1008.7
20260506080629 44 0.0 0.0 0.00 0.00 0.00 58 1008.7
20260506080128 44 0.0 0.0 0.00 0.00 0.00 58 1008.7
20260506073122 44 0.0 0.0 0.00 0.00 0.00 57 1008.4
20260506072621 44 0.0 0.0 0.00 0.00 0.00 57 1008.4
20260506072120 44 0.0 0.0 0.00 0.00 0.00 57 1008.3
20260506071619 44 0.0 0.0 0.00 0.00 0.00 57 1008.3
20260506071118 44 0.0 0.0 0.00 0.00 0.00 57 1008.3
20260506070617 44 0.0 0.0 0.00 0.00 0.00 58 1008.2
20260506070118 44 0.0 0.0 0.00 0.00 0.00 57 1008.2